ICEYE-X54

导读

ICEYE-X54是芬兰ICEYE公司运营的合成孔径雷达(SAR)卫星,于2025年6月23日发射,属于全球最大SAR卫星星座的一员。它具备最高0.5米分辨率成像能力,支持聚束、条带、扫描多种工作模式,可满足灾害监测、海事监控、保险风控等多场景需求,能全天候全天时提供近实时高可靠对地观测数据,助力可持续发展与应急响应决策。

Basic Information
目录编号:
64570
目录名称:
ICEYE-X54
国际标识:
2025-135AU
轨道中心:
EARTH
卫星名称:
ICEYE-X54
卫星全名:
ICEYE-X54
卫星状态:
在轨 (已飞行447 天)
发射日期:
2025-06-23 UTC
国别 :
荷兰 (NL)
星等 :
--
This satellite is enrolled in the Space Conjunction Data Service (SCDS) and the current flight risk assessment level is: No High Risk
Orbit Information
数据来源 国际轨道数据
星历时间: 2026-09-13T06:04:24+0800
13小时前
查看轨道信息
半长轴: 6960.813km
偏心率: 0.0003101
轨道倾角: 97.779°
近地点辐角 50.883°
升交点赤经 9.542°
平近点角 309.266°
近地点: 580.517km
远地点: 584.835km
周期: 96.327分钟
每日圈数: 14.949025
Detailed Information
使用方式:
暂无
2D Orbit Map
3D Orbit Map
Orbit Altitude Analysis Chart
Orbit Inclination Analysis Chart
Orbit Comprehensive Analysis Chart
View Comprehensive Chart
Conjunction Data List
Event ID Objects TCA Miss Dist (km) Collision Risk Probability Collision Risk Index (CRI) Action
CDM_260913-230301-742906-457026
2026-09-13T
23:03:17+0000
1.927 km
极远距离
3.173934E-6 低风险 0.45
CDM_260914-081202-331706-457026
OKEAN 4 (23317)
2026-09-14T
08:12:43+0000
2.222 km
极远距离
2.231998E-6 低风险 0.42
CDM_260912-155806-325206-457024
2026-09-12T
15:58:00+0000
2.937 km
极远距离
1.325642E-6 低风险 0.37
CDM_260912-021806-325206-457025
2026-09-12T
02:18:42+0000
2.960 km
极远距离
1.311434E-6 低风险 0.37
Miss Distance Evolution Trend with All Objects
Collision Probability Evolution Trend with All Objects